Location: Kammav?rip?lem
(16.7671°N, 80.3317°E)
Time: 11:06:40
(UTC+00:00)

Daily predictions for brighter satellites

Satellite Brightness Start Highest point End
(mag) Time Altitude Azimuth Time Altitude Azimuth Time Altitude Azimuth
DELTA 4 R/B 4.0 12:14:17 10° SSW 12:19:02 41° SE 12:30:26 10° ENE
Meteor 2-2 Rocket 4.4 12:18:35 10° S 12:24:05 57° E 12:29:41 10° NNE
CZ-4B R/B 3.5 12:20:52 10° SSE 12:24:29 66° ENE 12:28:02 10° N
Cosmos 1500 2.9 12:21:39 10° N 12:25:08 65° E 12:28:37 10° SSE
Cosmos 2056 Rocket 4.5 12:20:56 10° SSE 12:25:24 28° E 12:29:56 10° NE
Cosmos 1437 Rocket 2.9 12:22:50 10° N 12:26:34 74° W 12:30:23 10° S
Cosmos 1812 2.8 12:25:34 10° S 12:29:13 77° W 12:32:53 10° N
Cosmos 1818 4.2 12:24:00 10° SW 12:29:17 59° WNW 12:34:38 10° NNE
Cosmos 2151 3.4 12:25:52 10° N 12:30:06 68° W 12:34:18 10° S
Meteor 1-31 Rocket 2.8 12:32:19 10° S 12:35:59 77° W 12:39:39 10° NNW
SL-16 R/B 2.2 12:30:30 10° N 12:36:05 63° ENE 12:41:39 10° SSE
ATLAS 2A CENTAUR R/B 3.5 12:36:22 10° W 12:38:24 30° SSW 12:42:39 10° SE
KM-V1 2.8 12:36:29 10° NW 12:38:50 55° NNE 12:40:44 11° ESE
Delta 7925 Rocket 3.7 12:34:58 10° SW 12:39:28 52° SSE 12:43:59 12° E
SKYMED 2 3.9 12:38:05 10° N 12:42:23 69° WNW 12:46:42 10° SSW
Cosmos 1782 2.7 12:41:02 10° S 12:44:53 68° E 12:48:44 10° N
ADEOS 4.5 12:42:41 10° SE 12:46:52 25° ENE 12:51:03 10° NNE
NOSS 3-4 (A) 4.2 12:40:30 10° NNW 12:48:05 53° ENE 12:56:21 10° SE
NOSS 3-4 (C) 4.2 12:40:38 10° NNW 12:48:08 53° ENE 12:56:19 10° SE
Cosmos 192 4.2 12:43:58 10° S 12:48:50 79° E 12:53:42 10° NNE
Cosmos 1371 Rocket 4.1 12:44:13 10° S 12:49:15 55° ESE 12:54:20 10° NNE
Cosmos 1812 Rocket 4.4 12:45:57 10° SSW 12:50:08 52° W 12:54:20 10° N
Cosmos 1943 4.4 12:46:28 10° NNE 12:50:18 18° ENE 12:54:06 10° ESE
JB-3 4.4 12:48:21 10° N 12:52:09 74° W 12:55:54 10° SSW
Cosmos 1269 Rocket 4.1 12:49:33 10° NNW 12:54:50 83° WSW 13:00:06 10° S
Cosmos 1844 3.7 12:50:33 10° SSW 12:56:20 82° ESE 13:02:07 10° NNE
Cosmos 2026 Rocket 4.0 12:53:19 10° S 12:59:28 87° E 13:05:43 10° N
Meteor 1-26 Rocket 4.1 13:01:07 10° S 13:06:28 67° E 13:11:55 10° NNE
SL-08 R/B 4.1 13:02:14 10° N 13:06:41 51° WNW 13:11:13 10° SSW
Delta 2 Rocket 4.1 13:02:39 10° WSW 13:06:55 45° NNW 13:09:15 21° NNE
Meteor 1-25 Rocket 4.2 13:03:21 10° N 13:08:51 57° E 13:14:16 10° SSE
Stardust Del rocket 4.5 12:59:11 10° WNW 13:09:04 75° N 13:12:12 24° E
Cosmos 1420 Rocket 4.1 13:03:57 10° SSW 13:09:08 80° WNW 13:14:22 10° N
GPS 2-17 Rocket1 3.8 13:05:15 10° W 13:09:54 52° SSW 13:13:46 14° ESE
IKONOS-2 4.4 13:07:28 12° NNE 13:11:21 65° ESE 13:15:31 10° S
Cosmos 44 3.6 13:07:33 10° N 13:12:27 44° ENE 13:17:01 10° SE
Cosmos 1092 Rocket 4.3 13:06:25 10° SSW 13:12:31 66° W 13:18:36 10° N
Cosmos 1624 Rocket 4.1 13:09:01 10° SSW 13:14:16 80° WNW 13:19:30 10° N
Meteor PRIRODA 3.3 13:15:46 10° SSE 13:19:10 65° ENE 13:22:11 13° N
H-2A R/B 3.6 13:15:54 10° NNW 13:19:46 26° NNE 13:21:18 25° NE
SL-4 R/B 1.7 13:17:27 10° SSW 13:20:40 49° SE 13:20:48 48° ESE
Lacrosse 5 4.2 13:18:45 10° W 13:22:03 17° NW 13:25:22 10° N
Hubble Space Telescope 1.7 13:18:36 10° NW 13:22:10 30° NNE 13:22:11 30° NNE
BREEZE-M DEB (TANK) 3.3 13:11:59 10° SSW 13:24:58 60° SE 13:26:25 39° ENE
OAO 3 Copernicus 4.2 13:21:48 10° SW 13:26:51 75° SE 13:28:29 43° ENE
CZ-4B R/B 2.9 13:33:27 10° SSE 13:37:48 71° ENE 13:39:11 42° N
Cosmos 1844 Rocket 4.5 13:34:04 10° SW 13:38:47 28° WNW 13:43:30 10° NNW
Cosmos 1515 4.3 13:35:28 10° SSW 13:38:56 51° W 13:40:12 33° NNW
Centaur AC-72 3.6 13:32:57 10° W 13:38:59 87° SSW 13:50:39 22° ESE
Cosmos 1140 Rocket 3.3 13:34:54 10° N 13:40:01 78° ENE 13:45:08 10° SSE
OAO 2 Rocket 3.3 13:35:28 10° WSW 13:40:31 76° NNW 13:41:34 55° NE
FUSE 3.8 13:36:53 10° WSW 13:42:11 80° NNW 13:43:07 60° NE
COSMOS 2455 2.9 13:37:13 10° SSW 13:43:12 80° WNW 13:46:14 31° NNE
Ariane H10+ 4.4 13:37:47 10° WSW 13:43:40 21° SSW 13:46:00 14° SSE
GPS 2-14 Rocket1 3.1 13:43:17 10° WSW 13:46:07 52° WSW 13:46:07 52° WSW
Cosmos 2221 4.3 13:46:32 10° SW 13:50:16 30° W 13:54:00 10° NNW
Meteor 1-5 Rocket 4.2 13:45:28 10° N 13:51:14 68° E 13:57:07 10° SSE
ATLAS 2AS CENTAUR RB 4.1 13:48:46 10° WSW 13:53:03 35° S 14:10:27 10° ESE
YAOGAN 1 2.7 13:50:28 10° S 13:54:44 72° WSW 13:54:46 72° W
DELTA 2 R/B (1) 3.6 13:49:38 10° WSW 13:55:10 68° NW 13:55:50 61° N
Cosmos 2251 Rocket 3.9 14:05:53 10° NNW 14:11:10 64° WSW 14:16:27 10° S
Meteor 2-12 Rocket 4.3 14:06:07 10° S 14:11:42 77° S 14:11:42 77° S
Cosmos 1452 Rocket 4.4 14:19:54 10° SSW 14:23:46 45° SW 14:23:46 45° SW
ATLAS CENTAUR Rocket 3.4 14:36:04 10° W 14:38:45 41° WNW 14:38:45 41° WNW
ATLAS CENTAUR R/B 4.3 14:44:32 10° NNW 15:02:38 26° SSE 15:08:27 10° SSE
Longmarch 3A Rocket 4.3 22:04:30 35° E 22:04:30 35° E 22:12:22 10° ENE
Lacrosse 5 3.9 22:15:42 24° SE 22:15:42 24° SE 22:17:48 10° SE
USA 229 DEB 4.2 22:23:49 23° S 22:27:17 48° ESE 22:33:09 10° NE
USA 229 4.2 22:21:40 10° S 22:27:21 47° ESE 22:33:12 10° NE
BREEZE-M (TANK) 4.0 22:31:57 53° E 22:31:57 53° E 22:41:09 10° NE
ATLAS 2A CENTAUR R/B 4.2 22:43:45 23° NNE 22:43:45 23° NNE 22:45:19 10° NE
Sakura Rocket 4.4 22:43:34 37° ENE 22:43:34 37° ENE 22:46:05 10° ENE
Cosmos 2263 Rocket 2.8 22:45:33 45° S 22:45:33 45° S 22:49:28 10° S
H-2A R/B 3.4 22:42:55 10° NNE 22:47:29 37° E 22:52:07 10° SSE
DELTA 2 R/B (1) 3.6 22:53:59 66° S 22:53:59 66° S 22:59:03 10° SE
Cosmos 1464 Rocket 4.4 22:48:35 10° S 22:54:33 58° E 23:00:34 10° NNE
Tsikada Rocket 3.8 22:56:10 68° W 22:56:10 68° W 23:02:18 10° S
IRS-1C 4.2 23:00:08 10° NNE 23:05:27 78° ESE 23:10:46 10° S
Cosmos 1758 Rocket 4.5 23:03:14 10° SSE 23:07:25 47° E 23:11:33 10° NNE
Cosmos 1818 3.5 23:11:55 58° WNW 23:12:44 68° WSW 23:18:05 10° SSE
OAO 3 Rocket 3.9 23:14:29 37° N 23:14:29 37° N 23:18:17 10° NE
ERS-1 4.5 23:10:49 10° NNE 23:15:46 79° ESE 23:20:44 10° S
ASC 2 Rocket 3.7 23:21:39 36° N 23:21:39 36° N 23:25:39 10° ENE
Cosmos 2034 Rocket 4.3 23:17:33 10° S 23:23:52 71° E 23:30:11 10° N
SL-4 R/B 2.3 23:24:52 39° NNW 23:26:19 67° NE 23:30:45 10° SE
ARIANE 5 R/B 2.4 23:21:34 10° N 23:26:45 67° WNW 23:31:54 10° SSW
Lacrosse 5 rocket 3.0 23:32:02 19° N 23:32:02 19° N 23:33:39 10° N
CZ-3 Stage 3 3.4 23:32:09 13° N 23:32:09 13° N 23:33:08 10° NNE
Cosmos 2219 Rocket 2.4 23:27:19 10° SW 23:32:37 43° WNW 23:37:58 10° N
USA 281 3.4 23:26:49 10° N 23:32:58 44° WNW 23:39:06 10° SW
Cosmos 1602 Rocket 3.4 23:29:44 10° S 23:34:09 73° W 23:38:33 10° N
CZ-3 R/B 3.4 23:22:54 24° W 23:36:47 51° NNW 23:44:09 10° ENE
IRS-P3 4.1 23:31:50 10° N 23:37:04 60° WNW 23:42:17 10° SSW
Cosmos 1048 Rocket 4.2 23:33:01 10° S 23:38:12 73° ESE 23:43:19 10° NNE
Cosmos 2058 Rocket 3.2 23:37:12 31° NW 23:38:46 46° W 23:42:55 10° SSW
SL-19 R/B 4.1 23:33:51 10° N 23:38:59 54° WNW 23:44:02 10° SSW
GPS 2-15 Rocket1 3.2 23:37:17 34° WNW 23:39:07 61° N 23:43:51 10° E
USA 215 4.0 23:33:58 10° N 23:39:24 29° NW 23:41:36 24° WNW
Cosmos 1939 Rocket 3.0 23:37:48 25° NNW 23:39:37 43° WNW 23:43:14 10° SSW
Cosmos 1844 4.3 23:42:34 10° N 23:48:01 56° ENE 23:53:26 10° SSE
Spot 4 Rocket 4.3 23:43:05 10° NNE 23:48:12 70° ESE 23:53:18 10° S
Atlas Centaur 2 1.1 23:52:15 14° WSW 23:55:17 77° SSE 23:59:08 10° ENE
Lacrosse 5 3.8 23:54:58 12° WSW 23:55:24 12° WSW 23:57:08 10° SW
